Starlink 11362

operational
NORAD ID: 61535 Int'l Des: 2024-184 Owner: SPXS Country: US Constellation: starlink
LEOCIRCULAR

About Starlink 11362

Description loading...

Live Position

Loading 3D Globe...

Upcoming Passes

Altitude History

Altitude vs Time

uPlot chart will show altitude changes over time

Two-Line Element Set

1 61535U 24184D 25259.58216586 -.00003569 00000-0 -24641-4 0 9999
2 61535 53.1583 14.4113 0000915 83.4910 276.6212 15.69684058 53074
Epoch: Sep 16, 2025 • Age: 34 hours

Current Status

Altitude 362.3 km
Velocity 7.70 km/s
Sub-Earth Point 36.79°N, 47.25°E
Launch Date Oct 15, 2024
Age 0.9 years
Type internet

Technical Details

Classification Payload
Mass 960.00 kg
Dry Mass 910.00 kg
Total Mass 960.00 kg
Length 0.30 m
Diameter 4.10 m
Span 29.00 m
Shape Box + pan
Manufacturer SPXS
Bus Type Starlink V2MD
Phase Status In Orbit
Owner/State SPXS/US

Large Constellations

Loading constellations...